Location: Gensac
(43.2177°N, 1.1313°E)
Time: 16:24:57
(UTC+00:00)

Cosmos 1606 Rocket - Pass Details

Date: 08 December 2025
Orbit: 596 x 625 km, 82.5° (Epoch: 16 January)

Event Time Altitude Azimuth Distance (km) Brightness Sun altitude
Exits shadow 04:43:36 35° 26° (NNE) 1,015 4.7 -26.7°
Maximum altitude 04:45:04 50° 78° (ENE) 798 4.4 -26.4°
Drops below altitude 10° 04:49:19 10° 154° (SSE) 1,977 6.5 -25.7°
Sets 04:51:35 0° 160° (SSE) 2,873 7.4 -25.3°
